Jacksonville Craig, FL

5:25 AM EDT on May 25, 2017 (GMT -0400)
Craig Municipal

Weather History for KCRG - March, 2014

Change the Weather History Date:

Friday, March 7, 2014

  Actual Average Record
Temperature  
Mean Temperature 47 °F -  
Max Temperature 50 °F 68 °F 82 °F (2004)
Min Temperature 44 °F 49 °F 39 °F (2013)
Degree Days  
Heating Degree Days 18    
Moisture  
Dew Point 41 °F    
Average Humidity 81    
Maximum Humidity 93    
Minimum Humidity 68    
Precipitation  
Precipitation 0.00 in - - ()
Sea Level Pressure  
Sea Level Pressure 29.92 in    
Wind  
Wind Speed 9 mph (NW)    
Max Wind Speed 13 mph    
Max Gust Speed 23 mph    
Visibility 9 miles    
Events Rain    
Averages and records for this station are not official NWS values.
T = Trace of Precipitation, MM = Missing Value Source: NWS Daily Summary

Daily Weather History Graph

Daily Weather History Graph

Search for Another Location

Airport or City:

Trip Planner

Search our weather history database for the weather conditions in past years. The results will help you decide how hot, cold, wet, or windy it might be!

Date:

Astronomy

Mar. 07, 2014 Rise Set
Actual Time 6:45 AM EST 6:29 PM EST
Civil Twilight 6:21 AM EST 6:53 PM EST
Nautical Twilight 5:53 AM EST 7:20 PM EST
Astronomical Twilight 5:25 AM EST 7:48 PM EST
Moon 11:02 AM EST (3/7) 12:08 AM EST (3/7)
Length of Visible Light 12h 31m
Length of Day
11h 43m
Waxing Crescent, 42% of the Moon is Illuminated
Mar 7
Waxing Crescent
Mar 8
First Quarter
Mar 16
Full
Mar 23
Last Quarter
Mar 30
New

Hourly Weather History & Observations

Time (EST) Temp. Windchill Dew Point Humidity Pressure Visibility Wind Dir Wind Speed Gust Speed Precip Events Conditions
12:53 AM 45.0 °F 39.3 °F 42.1 °F 90% 29.84 in 8.0 mi NW 11.5 mph - 0.00 in Rain Light Rain
1:22 AM 45.0 °F 40.6 °F 43.0 °F 93% 29.84 in 10.0 mi WNW 8.1 mph - 0.00 in   Overcast
1:40 AM 45.0 °F 40.6 °F 42.1 °F 90% 29.84 in 7.0 mi WNW 8.1 mph - 0.00 in   Overcast
1:53 AM 45.0 °F 41.8 °F 42.1 °F 90% 29.83 in 7.0 mi WNW 5.8 mph - 0.00 in   Overcast
2:53 AM 45.0 °F 41.2 °F 42.1 °F 90% 29.82 in 10.0 mi NNW 6.9 mph - 0.00 in   Overcast
3:12 AM 45.0 °F 41.8 °F 42.1 °F 90% 29.81 in 10.0 mi North 5.8 mph - N/A   Overcast
3:53 AM 44.1 °F 41.5 °F 41.0 °F 89% 29.78 in 10.0 mi North 4.6 mph - N/A   Overcast
4:53 AM 44.1 °F 39.0 °F 41.0 °F 89% 29.84 in 10.0 mi West 9.2 mph - 0.00 in   Overcast
5:02 AM 44.1 °F 38.6 °F 41.0 °F 89% 29.84 in 10.0 mi West 10.4 mph - N/A   Overcast
5:53 AM 44.1 °F 39.0 °F 41.0 °F 89% 29.85 in 5.0 mi West 9.2 mph - 0.00 in Rain Light Rain
6:53 AM 44.1 °F 40.1 °F 39.9 °F 85% 29.85 in 4.0 mi WNW 6.9 mph - 0.00 in Rain Light Rain
7:53 AM 44.1 °F 40.1 °F 39.9 °F 85% 29.89 in 6.0 mi WNW 6.9 mph - 0.00 in   Overcast
8:53 AM 45.0 °F 40.6 °F 41.0 °F 86% 29.90 in 10.0 mi NW 8.1 mph - 0.00 in   Overcast
9:00 AM 45.0 °F 40.1 °F 41.0 °F 86% 29.90 in 10.0 mi WNW 9.2 mph - N/A   Overcast
9:11 AM 44.1 °F 39.5 °F 39.9 °F 85% 29.91 in 10.0 mi WNW 8.1 mph - N/A   Overcast
9:26 AM 45.0 °F 39.3 °F 39.9 °F 82% 29.91 in 10.0 mi NW 11.5 mph - N/A   Overcast
9:53 AM 45.0 °F 39.3 °F 39.9 °F 82% 29.91 in 10.0 mi NW 11.5 mph - N/A   Overcast
10:53 AM 45.0 °F 39.3 °F 39.9 °F 82% 29.91 in 10.0 mi WNW 11.5 mph - N/A   Overcast
11:53 AM 46.0 °F 41.0 °F 39.9 °F 79% 29.92 in 10.0 mi NW 10.4 mph - N/A   Overcast
12:53 PM 46.0 °F 40.2 °F 39.9 °F 79% 29.91 in 10.0 mi West 12.7 mph - N/A   Overcast
1:53 PM 46.0 °F 40.2 °F 39.9 °F 79% 29.90 in 10.0 mi WNW 12.7 mph - N/A   Overcast
2:53 PM 46.9 °F - 39.0 °F 74% 29.91 in 10.0 mi WNW 10.4 mph 23.0 mph N/A   Overcast
3:53 PM 48.9 °F - 39.9 °F 71% 29.91 in 10.0 mi NW 12.7 mph - N/A   Overcast
4:53 PM 48.9 °F - 39.9 °F 71% 29.92 in 10.0 mi NW 12.7 mph - N/A   Overcast
5:37 PM 50.0 °F - 39.9 °F 68% 29.95 in 10.0 mi WNW 8.1 mph - N/A   Overcast
5:53 PM 50.0 °F - 39.9 °F 68% 29.96 in 10.0 mi WNW 10.4 mph - N/A   Overcast
6:53 PM 50.0 °F - 41.0 °F 71% 29.98 in 10.0 mi WNW 8.1 mph - N/A   Overcast
7:07 PM 50.0 °F - 41.0 °F 71% 29.99 in 10.0 mi WNW 6.9 mph - N/A   Overcast
7:53 PM 48.9 °F - 41.0 °F 74% 30.00 in 10.0 mi WNW 9.2 mph - N/A   Overcast
8:53 PM 50.0 °F - 42.1 °F 74% 30.04 in 10.0 mi NW 10.4 mph - N/A   Overcast
9:06 PM 50.0 °F - 42.1 °F 74% 30.04 in 10.0 mi NW 12.7 mph - N/A   Overcast
9:53 PM 50.0 °F - 42.1 °F 74% 30.06 in 10.0 mi NNW 11.5 mph - N/A   Overcast
10:53 PM 50.0 °F - 42.1 °F 74% 30.06 in 10.0 mi NNW 11.5 mph - N/A   Overcast
11:16 PM 48.9 °F - 41.0 °F 74% 30.07 in 10.0 mi NNW 11.5 mph - N/A   Partly Cloudy
11:53 PM 48.9 °F - 41.0 °F 74% 30.06 in 10.0 mi North 11.5 mph - N/A   Clear